Flag for Spain Weather past 2 weeks in Valladolid, Spain

Now
61 °F

Sunny.


Feels Like: 61 °F
Forecast: 49 / 80 °F
Wind: 6 mph from East

Location: Valladolid / Villanubla

Current Time: Oct 20, 2014 at 11:23:12 AM

Latest Report: Oct 20, 2014 at 11:00 AM


Visibility: 10 mi

Pressure: 30.27 "Hg

Humidity: 72%

Dew point: 52 °F

Location of ValladolidLocation

Historic Weather in Valladolid — Graph

°F

Valladolid temperature yesterday

Maximum temperature yesterday: 77 °F (at 4:30 PM)
Minimum temperature yesterday: 50 °F (at 7:30 AM)
Average temperature yesterday: 65 °F

Past Weeks' High & Low Weather Summary

 TemperatureHumidityPressure
High77 °F (Oct 19, 4:30 PM)100% (Oct 6, 7:00 AM)30.24 "Hg (Oct 6, 7:00 AM)
Low46 °F (Oct 6, 8:30 AM)38% (Oct 18, 6:00 PM)29.68 "Hg (Oct 12, 7:00 AM)
Average60 °F76%29.95 "Hg
* Reported Oct 5 10:00 AM — Oct 20 10:00 AM, Valladolid, Weather by CustomWeather, © 2014

Note: Actual official high and low records may vary slightly from our data, if they occured in-between our weather recording intervals... More about our weather records

Advertising

Valladolid weather history for previous 24 hours

 ConditionsComfort  
Time TempWeatherWind HumidityBarometerVisibility
10:00 AM
Oct 20
57 °FSunny.5 mph77%30.24 "Hg10 mi
9:30 AM52 °FClear.2 mph88%30.24 "Hg10 mi
9:00 AM50 °FPassing clouds.6 mph88%30.24 "HgN/A
8:30 AM50 °FClear.6 mph88%30.21 "Hg10 mi
8:00 AM50 °FClear.3 mph94%30.21 "Hg10 mi
7:30 AM52 °FClear.6 mph88%30.21 "Hg10 mi
9:30 PM
Oct 19
64 °FClear.2 mph64%30.21 "Hg10 mi
9:00 PM64 °FClear.5 mph68%30.21 "Hg10 mi
8:30 PM66 °FSunny.2 mph64%30.18 "Hg10 mi
8:00 PM70 °FSunny.2 mph57%30.18 "Hg10 mi
7:30 PM72 °FSunny.2 mph53%30.18 "Hg10 mi
7:00 PM75 °FSunny.2 mph47%30.18 "Hg10 mi
6:30 PM75 °FSunny.5 mph41%30.18 "Hg10 mi
6:00 PM75 °FPassing clouds.5 mph41%30.18 "HgN/A
5:30 PM75 °FSunny.2 mph41%30.18 "Hg10 mi
5:00 PM77 °FSunny.1 mph42%30.18 "Hg10 mi
4:30 PM77 °FSunny.No wind39%30.18 "Hg10 mi
4:00 PM75 °FSunny.No wind41%30.18 "Hg10 mi
3:30 PM75 °FSunny.2 mph41%30.18 "Hg10 mi
3:00 PM73 °FSunny.1 mph47%30.21 "Hg10 mi
2:30 PM73 °FSunny.1 mph47%30.21 "Hg10 mi
2:00 PM70 °FSunny.1 mph53%30.21 "Hg10 mi
1:30 PM68 °FSunny.2 mph60%30.24 "Hg10 mi
1:00 PM66 °FPassing clouds.5 mph60%30.21 "HgN/A
12:30 PM63 °FPassing clouds.5 mph68%30.21 "HgN/A
12:00 PM63 °FSunny.6 mph68%30.21 "Hg10 mi
11:30 AM59 °FPassing clouds.5 mph77%30.21 "HgN/A
11:00 AM59 °FSunny.5 mph77%30.21 "Hg10 mi
Weather by CustomWeather, © 2014

See weather overviewHow to use our weather pages